This demonstration page uses our WeatherBlox Daily Observations layout. Learn more.

Left ArrowRight Arrow

39.92423, -83.80882

Hourly Observations for December 8, 2015

Temp ( °F °C ) Dew Point ( °F °C ) Humidity (%) Winds ( mph kmh ) Pressure ( in mb ) Visibility ( mi km ) Precip ( " mm )
12:01 am 00:01 Clear with Mist and Fog 34 1 34 1 100 100 SW 5 7 30.21 1023 1.5 2.41401 0 0
12:05 am 00:05 Mostly Cloudy with Mist and Fog 34 1 34 1 100 100 WSW 5 7 30.21 1023 1 1.60934 0 0
12:08 am 00:08 Mostly Cloudy with Fog 34 1 34 1 100 100 WSW 3 6 30.21 1023 0.5 0.80467 0 0
12:16 am 00:16 Mostly Cloudy with Fog 32 0 32 0 100 100 WSW 5 7 30.21 1023 0.25 0.402335 0 0
12:21 am 00:21 Mostly Cloudy with Mist and Fog 34 1 34 1 100 100 WSW 5 7 30.21 1023 0.75 1.207005 0 0
12:24 am 00:24 Mostly Cloudy with Mist and Fog 36 2 36 2 100 100 WSW 3 6 30.21 1023 1.5 2.41401 0 0
12:28 am 00:28 Cloudy with Mist and Fog 36 2 36 2 100 100 SW 3 6 30.21 1023 3 4.82802 0 0
12:49 am 00:49 Cloudy with Mist and Fog 36 2 36 2 100 100 SSW 3 6 30.18 1022 4 6.43736 0 0
12:56 am 00:56 Cloudy with Mist and Fog 36 2.2 36 2.2 100 100 SSW 3 6 30.14 1021 4 6.43736 0 0
1:56 am 01:56 Cloudy with Mist and Fog 38 3.3 38 3.3 100 100 S 3 6 30.14 1021 5 8.0467 0 0
2:56 am 02:56 Cloudy with Mist and Fog 38 3.3 38 3.3 100 100 SSE 3 6 30.14 1021 3 4.82802 0 0
3:56 am 03:56 Cloudy 40 4.4 40 4.4 100 100 Calm 30.13 1020 10 16.0934 0 0
4:29 am 04:29 Partly Cloudy 37 3 37 3 100 100 SSE 6 9 30.15 1021 10 16.0934 0 0
4:56 am 04:56 Clear 38 3.3 38 3.3 100 100 S 5 7 30.11 1020 10 16.0934 0 0
5:46 am 05:46 Mostly Cloudy 39 4 37 3 93 93 S 5 7 30.12 1020 10 16.0934 0 0
5:56 am 05:56 Cloudy 39 3.8 38 3.3 97 97 S 6 9 30.11 1020 10 16.0934 0 0
6:56 am 06:56 Cloudy 41 5 40 4.4 96 96 S 6 9 30.11 1020 10 16.0934 0 0
7:56 am 07:56 Cloudy 41 5 40 4.4 96 96 SSW 6 9 30.12 1020 10 16.0934 0 0
8:56 am 08:56 Mostly Cloudy 42 5.5 40 4.4 93 93 SSW 7 11 30.12 1020 10 16.0934 0 0
9:41 am 09:41 Partly Cloudy 45 7 41 5 87 87 SSW 7 11 30.12 1020 10 16.0934 0 0
9:56 am 09:56 Sunny 45 7.2 41 5 86 86 SSW 8 13 30.11 1020 10 16.0934 0 0
10:56 am 10:56 Sunny 48 8.8 41 5 77 77 SSW 13 20 30.09 1019 10 16.0934 0 0
11:56 am 11:56 Sunny 50 10 41 5 71 71 SSW 12 19 30.07 1018 10 16.0934 0 0
12:56 pm 12:56 Sunny 51 10.5 40 4.4 66 66 SSW 8 13 30.05 1018 10 16.0934 0 0
1:56 pm 13:56 Sunny 54 12.2 37 2.7 53 53 S 10 17 30.03 1017 10 16.0934 0 0
2:56 pm 14:56 Sunny 53 11.6 38 3.3 57 57 S 9 15 30.01 1016 10 16.0934 0 0
3:56 pm 15:56 Sunny 51 10.5 38 3.3 61 61 S 6 9 30.01 1016 10 16.0934 0 0
4:56 pm 16:56 Sunny 49 9.4 38 3.3 66 66 S 7 11 30.01 1016 10 16.0934 0 0
5:56 pm 17:56 Clear 46 7.7 38 3.3 74 74 SSE 7 11 30.01 1016 10 16.0934 0 0
6:56 pm 18:56 Clear 44 6.6 38 3.3 80 80 SSE 7 11 30.01 1016 10 16.0934 0 0
7:56 pm 19:56 Clear 44 6.6 38 3.3 80 80 SSE 8 13 30.01 1016 10 16.0934 0 0
8:56 pm 20:56 Clear 43 6.1 38 3.3 82 82 SSE 8 13 30 1016 10 16.0934 0 0
9:56 pm 21:56 Clear 44 6.6 38 3.3 80 80 SSE 8 13 29.98 1015 10 16.0934 0 0
10:56 pm 22:56 Clear 43 6.1 37 2.7 79 79 S 5 7 29.97 1015 10 16.0934 0 0
11:56 pm 23:56 Clear 40 4.4 36 2.2 86 86 SSE 8 13 29.96 1015 10 16.0934 0 0

Powered by AerisWeather